Location: Düngen
(52.0952°N, 10.0219°E)
Time: 16:10:44
(UTC+00:00)

Cosmos 1655 Rocket - Pass Details

Date: 11 March 2026
Orbit: 970 x 1005 km, 82.9° (Epoch: 14 April)

Event Time Altitude Azimuth Distance (km) Brightness Sun altitude
Exits shadow 19:44:26 30° 165° (SSE) 1,731 4.9 -22.8°
Maximum altitude 19:47:43 64° 94° (E) 1,107 4.0 -23.3°
Drops below altitude 10° 19:54:03 10° 15° (NNE) 2,794 6.5 -24.1°
Sets 19:56:37 0° 12° (NNE) 3,748 7.3 -24.5°
